Printer-friendly version
Follow the MPC on Twitter Follow the MPC on Facebook The MPC blog
Minor Planet Center

MPEC 2003-S86 : 2003 QZ30

The following Minor Planet Electronic Circular may be linked-to from your own Web pages, but must not otherwise be redistributed electronically.

A form allowing access to any MPEC is at the bottom of this page.


Read MPEC 2003-S85 Read MPEC 2003-S87


M.P.E.C. 2003-S86                                Issued 2003 Sept. 29, 22:04 UT

     The Minor Planet Electronic Circulars contain information on unusual
         minor planets and routine data on comets.  They are published
   on behalf of Commission 20 of the International Astronomical Union by the
          Minor Planet Center, Smithsonian Astrophysical Observatory,
                          Cambridge, MA 02138, U.S.A.

         Supported in part by the Steven and Michele Kirsch Foundation
             Prepared using the Tamkin Foundation Computer Network

                              MPC@CFA.HARVARD.EDU
          URL http://cfa-www.harvard.edu/iau/mpc.html  ISSN 1523-6714

                                   2003 QZ30

                           Revision to MPEC 2003-Q34

Additional Observations:
     K03Q30Z 9 1984 08 23.48676 19 55 54.05 -08 07 09.9                      260
     K03Q30Z 9 1984 08 23.52148 19 55 51.05 -08 07 32.7                      260
     K03Q30Z 9 1985 03 14.47682 06 58 11.38 +13 23 49.5                      260
     K03Q30Z 9 1985 03 14.49071 06 58 14.44 +13 23 58.2                      260

Observer details:
260 Siding Spring-DSS.  Measurers M. Read, R. Haver, A. Pelloni, G. Forti.
    1.2-m Schmidt.

First and last observations above in comparison with prediction:
Residuals in seconds of arc (or two decimals in degrees), reference and Delta-T
840823 260 0.06+ 0.02+    850314 260 0.14+ 0.01-    MPO 50790   -0.10 day

Orbital elements:
2003 QZ30
Epoch 2003 Dec. 27.0 TT = JDT 2453000.5                 MPC
M   9.67019              (2000.0)            P               Q
n   0.26110119     Peri.  242.95112     +0.48068125     -0.87688425
a   2.4243584      Node   178.29969     +0.84805945     +0.46358612
e   0.6280742      Incl.    8.56988     +0.22302624     +0.12712953
P   3.77           H   17.5           G   0.15           U   1
Residuals in seconds of arc
840823 260  1.2-  0.1-    030830 170  0.0   0.1+    030912 941  0.4+  0.5-
840823 260  1.5+  0.3+    030830 170  0.2+  0.1+    030912 941  0.4+  0.5-
850314 260  0.6-  0.2+    030830 170  0.1-  0.2+    030912 941  0.4+  0.5-
850314 260  0.5+  0.4+    030830 587  0.5-  0.2+    030913 699  0.0   0.1-
030709 644  0.3-  0.1-    030830 587  0.2-  0.4+    030913 699  0.3-  0.4-
030709 644  0.4-  0.1+    030830 587  0.2-  0.2+    030913 699  0.2+  0.2-
030709 644  0.4-  0.1-    030831 151  0.2-  0.2+    030913 699  0.5+  0.2-
030709 644  0.4-  0.3+    030831 151  0.0   0.3-    030913 347  1.1+  0.8-
030709 644  0.0   0.3+    030831 151  0.1-  0.1-    030913 347  1.3+  0.6-
030709 644  0.3-  0.1-    030831 151  0.0   0.0     030915 938  0.3+  0.4-
030825 704  0.1+  0.4-    030831 151  0.0   0.0     030915 A30  0.9+  0.3+
030825 704  0.2-  0.2-    030831 151  0.0   0.5-    030915 938  0.1+  0.1-
030825 704  0.0   0.2-    030831 151  0.0   0.0     030915 A30  0.5+  0.8+
030825 704 (0.1-  3.6-)   030831 151  0.3-  0.1-    030915 938  0.1+  0.1+
030825 704  0.2-  0.2-    030831 151  0.2-  0.2-    030915 A30  1.1+  0.2+
030825 113  0.0   0.2+    030902 704  0.2+  0.1+    030915 A30  0.8+  0.3+
030825 952  0.1+  0.1+    030902 704  0.3+  0.1-    030915 A30  0.9+  0.1+
030825 636  0.2-  0.6+    030902 704  0.1-  0.0     030916 699  0.3-  0.2+
030825 636  0.5-  0.5+    030902 704  0.4+  0.1-    030916 699  0.1+  0.0
030825 118  0.4-  0.0     030902 704  0.3+  0.3-    030916 699  0.1+  0.1+
030825 636  1.5-  0.8-    030902 196  0.1+  0.1+    030916 699  0.1-  0.0
030825 952  0.1+  0.3-    030902 196  1.5+  0.6-    030916 J93  0.2-  0.3+
030825 198  0.1+  0.2+    030903 379  0.1-  0.5-    030916 J93  0.8-  0.3+
030825 118  0.0   0.2+    030903 379  0.2+  0.5-    030916 J93  0.7-  0.0
030825 113  0.3+  0.3+    030903 379  0.0   0.7-    030916 J93  0.3-  0.1+
030825 198  0.0   0.2-    030903 379  0.4-  0.6-    030917 379  0.1+  0.5+
030825 113  0.2+  0.2+    030903 379  0.4-  0.7-    030917 379  0.3-  0.5-
030825 213  0.4+  0.3-    030903 151  0.6-  0.2-    030917 379  0.9-  0.6-
030825 246  0.2+  0.4+    030903 151  0.4+  0.2-    030917 379  0.8-  0.1+
030825 246  0.1+  0.2+    030903 151  0.1+  0.0     030918 670  0.1+  0.1+
030825 118  0.1-  0.2+    030903 151  0.0   0.2-    030918 670  0.0   0.4+
030825 246  0.1+  0.4+    030903 151  0.0   0.2+    030918 428  0.0   0.1-
030825 952  0.4+  0.2-    030903 151  0.2+  0.3-    030918 428  0.1-  0.2+
030825 246  0.1+  0.3+    030903 151  0.3+  0.1-    030918 428  0.3+  0.1+
030825 213  0.1-  0.0     030903 151  0.1-  0.0     030918 428  0.2+  0.1-
030825 952  0.1-  0.4-    030903 151  0.1-  0.1+    030918 215  0.1-  0.2+
030825 198  0.1+  0.3-    030903 151  0.1-  0.3-    030918 215  0.1-  0.0
030825 213  0.1+  0.1+    030903 163  0.3-  0.3+    030918 215  0.1-  0.3+
030825 952  0.1-  0.0     030903 163  0.2-  0.3+    030919 J87  0.1-  0.5-
030825 198  0.3+  0.4-    030903 163  0.9-  0.3-    030919 J87  0.1+  0.5-
030825 213  0.5+  0.6-    030903 163  0.2-  0.3+    030919 J87  0.4-  0.2-
030825 952  0.5+  0.3-    030903 163  0.2-  0.2+    030920 108 (0.6-  2.5-)
030825 198  0.3+  0.4-    030905 379  0.3-  0.1-    030920 108  0.0   0.0
030825 213  0.1-  0.1-    030905 379  0.3-  0.0     030920 108  0.0   0.8-
030825 941  0.1-  0.3+    030905 J87  0.1-  0.4+    030920 J87  0.1+  0.2-
030825 213  0.3+  0.6-    030905 J87  0.3-  0.0     030920 108  0.0   0.6+
030825 941  0.1-  0.2+    030905 J87  0.5-  0.1+    030920 J87  0.6+  0.5-
030825 941  0.0   0.2+    030906 379  0.0   0.0     030920 J87  0.2+  0.4-
030825 941  0.0   0.2+    030906 379  0.1-  0.1-    030922 699  0.3+  0.1+
030825 941  0.1+  0.2+    030906 379  0.6+  0.8-    030922 699  0.3+  0.1+
030825 557  0.1+  0.3+    030906 379  0.2-  0.2+    030922 699  0.3+  0.2+
030825 557  0.1-  0.3+    030906 379  0.8+  0.5-    030922 699  0.5+  0.1+
030825 196  0.7+  0.1-    030906 J93  1.4-  0.3+    030923 J93  0.7-  0.3+
030825 J87  0.3+  0.3+    030906 J93  0.6+  0.9+    030923 J93  0.1+  0.1-
030825 J87  0.7+  0.2+    030906 J93  0.1+  0.6+    030923 J93  0.3+  0.1-
030825 J87  0.4-  0.2+    030906 J93  1.0-  0.2+    030924 644  0.1+  0.3+
030825 196  0.3+  0.4+    030906 130  0.1+  0.0     030924 644  0.1+  0.1+
030825 196  0.8+  0.1+    030906 130  0.0   0.5+    030924 644  0.2+  0.1+
030825 196  0.6+  0.5+    030906 130  0.2-  0.4+    030924 113 (0.5+  2.5+)
030825 196  0.1-  0.0     030906 130  0.1+  0.2+    030924 113  0.3+  0.4-
030826 113  0.3-  0.1+    030907 859  0.3-  0.3+    030924 113  1.0-  0.8-
030826 113  0.2-  0.1+    030907 859  1.6-  0.2-    030924 113  0.4+  0.8-
030826 113  0.5-  0.1+    030907 859  0.1+  0.9+    030925 608  1.1-  1.3+
030826 850  0.1-  0.1+    030908 151  0.4-  0.0     030925 608  1.4-  1.5+
030826 850  0.1-  0.1+    030908 151  0.1-  0.3-    030925 608  1.3-  1.4+
030826 704  0.2-  0.1+    030908 151  0.1+  0.3-    030926 300  1.5-  0.6-
030826 704  0.2-  0.4+    030908 151  0.2+  0.4-    030926 300  1.0-  0.4+
030826 704  0.4-  0.3+    030908 151  0.2+  0.2-    030926 300  0.6-  0.4+
030826 204  0.3+  0.1+    030908 151  0.3+  0.4-    030926 300  0.2+  0.2-
030826 204  0.0   0.5+    030908 151  0.3+  0.5-    030926 300  0.4-  0.1+
030826 204  0.2-  0.2+    030908 151  0.2+  0.4-    030926 E14  0.1-  0.5-
030826 196  0.0   0.3+    030908 151  0.4+  0.5-    030926 E14  0.1-  0.2-
030826 196  0.3-  0.0     030908 151  0.3+  0.5-    030926 E14  0.2+  0.1+
030827 196  0.6+  0.3+    030909 938  0.0   0.1-    030926 108  0.4+  0.8+
030827 670  0.1+  0.3+    030909 938  0.1-  0.3-    030926 108  0.3+  0.9+
030827 670  0.0   0.1+    030909 938  0.0   0.1-    030926 108  0.6+  0.8+
030827 670  0.3-  0.2+    030910 170  0.5+  0.5-    030926 108  0.1-  0.9+
030827 176  0.0   0.3-    030910 170  0.4+  0.3-    030927 J87  1.0+  0.4+
030827 176  0.0   0.2-    030910 170  0.2+  0.2-    030927 J87  0.0   0.5-
030827 176  0.1-  0.4-    030910 170  0.2+  0.4+    030927 J87  0.2+  0.2-
030827 176  0.1-  0.5-    030911 413  0.1+  0.2-    030927 J87  0.2+  0.4-
030828 952  0.0   0.7+    030911 413  0.1+  0.2-    030927 J87  0.1-  0.4-
030828 952  0.3+  0.1+    030911 413  0.1+  0.3-    030928 E14  0.1+  0.1-
030829 704  1.0-  0.5+    030912 170  0.1+  0.0     030928 E14  0.0   0.3-
030829 704  0.8-  0.2+    030912 170  0.2+  0.0     030928 E14  0.1-  0.4-
030829 704  0.9-  0.2-    030912 170  0.2+  0.8+    030929 E14  0.1+  0.4-
030830 670  0.1+  0.1+    030912 941  0.4+  0.1-    030929 E14  0.1-  0.0
030830 670  0.0   0.3+    030912 941  0.4+  0.2-    030929 E14  0.2-  0.3-

Ephemeris:
2003 QZ30                a,e,i = 2.42, 0.63, 9                   q = 0.9017
Date    TT    R. A. (2000) Decl.     Delta      r     Elong.  Phase     V
2003 09 28    21 11.63   -14 28.2    0.221    1.161   131.5    40.3    16.1
2003 10 08    20 49.13   -24 43.2    0.179    1.083   113.5    57.8    16.0
2003 10 18    20 17.06   -39 21.5    0.145    1.015    93.1    78.7    16.1
2003 10 28    19 00.18   -58 49.8    0.124    0.959    70.3   102.7    16.6
2003 11 07    14 54.22   -68 58.0    0.126    0.921    52.9   120.8    17.7
2003 11 17    12 10.42   -55 45.5    0.153    0.903    52.1   120.2    18.1
2003 11 27    11 33.28   -43 13.4    0.196    0.907    60.7   108.5    17.8
2003 12 07    11 25.52   -35 07.0    0.241    0.934    70.8    95.1    17.7
2003 12 17    11 25.47   -29 44.7    0.283    0.980    80.9    82.6    17.6
2003 12 27    11 25.69   -25 41.7    0.318    1.041    91.4    70.8    17.6
2004 01 06    11 22.84   -22 00.6    0.347    1.114   103.0    59.4    17.6
2004 01 16    11 15.51   -18 06.5    0.372    1.194   115.9    47.8    17.5
2004 01 26    11 03.63   -13 40.9    0.399    1.279   130.2    36.0    17.5
2004 02 05    10 48.76   -08 47.1    0.435    1.367   145.3    24.2    17.5
2004 02 15    10 33.42   -03 50.1    0.487    1.456   160.2    13.3    17.5
2004 02 25    10 20.09   +00 39.0    0.559    1.545   170.9     5.8    17.6
2004 03 06    10 10.50   +04 17.3    0.653    1.633   165.8     8.6    18.2
2004 03 16    10 05.17   +06 58.7    0.768    1.721   154.8    14.3    18.9
2004 03 26    10 03.85   +08 48.5    0.901    1.806   144.2    18.9    19.5
2004 04 05    10 05.96   +09 55.2    1.050    1.891   134.5    22.2    20.1
2004 04 15    10 10.79   +10 28.3    1.212    1.973   125.6    24.4    20.5
2004 04 25    10 17.72   +10 35.2    1.386    2.053   117.4    25.8    20.9
2004 05 05    10 26.26   +10 21.9    1.569    2.132   109.7    26.4    21.3
2004 05 15    10 35.97   +09 53.1    1.758    2.208   102.4    26.6    21.6
2004 05 25    10 46.57   +09 11.9    1.951    2.283    95.5    26.2    21.9
2004 06 04    10 57.83   +08 21.2    2.147    2.355    88.8    25.5    22.2

Gareth V. Williams           (C) Copyright 2003 MPC           M.P.E.C. 2003-S86

Read MPEC 2003-S85 Read MPEC 2003-S87


MPEC number:

Enter an MPEC number in one of the following forms:

  • 1997-B01 (the full form)
  • J97B01 (the packed version of the full form)
  • B01 (the abbreviated form)

Valid HTML 4.01!